Location: Palomar Mountain Lodge
(33.3110°N, 116.8495°W)
Time: 04:37:54
(UTC-07:00)

Tiangong - Pass Details

Date: 20 February 2026
Orbit: 381 x 391 km, 41.5° (Epoch: 8 March)

Event Time Altitude Azimuth Distance (km) Brightness Sun altitude
Rises 19:45:19 0° 290° (WNW) 2,245 2.9 -27.5°
Reaches altitude 10° 19:47:29 10° 281° (WNW) 1,389 1.6 -28.0°
Enters shadow 19:48:18 16° 274° (W) 1,089 1.0 -28.1°
